| time (UTC) | temp C | wind direction | speed KPH | gust KPH | rain 1hr cm | rain 24hr cm | rain mn cm | humidity % | barometer mb |
| 20260509200907 | 27 | 329 | 8.0 | 9.7 | 0.00 | 0.00 | 0.00 | 32 | 1019.1 |
| 20260509200007 | 28 | 328 | 4.8 | 9.7 | 0.00 | 0.00 | 0.00 | 32 | 1019.1 |
| 20260509195408 | 28 | 339 | 6.4 | 12.9 | 0.00 | 0.00 | 0.00 | 32 | 1019.1 |
| 20260509194508 | 28 | 336 | 6.4 | 14.5 | 0.00 | 0.00 | 0.00 | 31 | 1019.1 |
| 20260509193607 | 28 | 337 | 6.4 | 20.9 | 0.00 | 0.00 | 0.00 | 31 | 1020.1 |
| 20260509192707 | 28 | 343 | 6.4 | 17.7 | 0.00 | 0.00 | 0.00 | 32 | 1020.1 |
| 20260509191808 | 28 | 342 | 9.7 | 17.7 | 0.00 | 0.00 | 0.00 | 32 | 1020.1 |
| 20260509190908 | 28 | 346 | 9.7 | 16.1 | 0.00 | 0.00 | 0.00 | 32 | 1020.1 |
| 20260509190028 | 28 | 346 | 6.4 | 17.7 | 0.00 | 0.00 | 0.00 | 32 | 1020.1 |
| 20260509185407 | 28 | 344 | 6.4 | 12.9 | 0.00 | 0.00 | 0.00 | 32 | 1020.1 |
| 20260509184508 | 28 | 343 | 11.3 | 24.1 | 0.00 | 0.00 | 0.00 | 32 | 1021.2 |
| 20260509183628 | 28 | 341 | 17.7 | 24.1 | 0.00 | 0.00 | 0.00 | 32 | 1021.2 |
| 20260509182707 | 28 | 342 | 12.9 | 24.1 | 0.00 | 0.00 | 0.00 | 32 | 1021.2 |
| 20260509181828 | 28 | 342 | 9.7 | 12.9 | 0.00 | 0.00 | 0.00 | 32 | 1019.1 |
| 20260509180928 | 28 | 344 | 4.8 | 16.1 | 0.00 | 0.00 | 0.00 | 32 | 1019.1 |
| 20260509180007 | 28 | 344 | 6.4 | 16.1 | 0.00 | 0.00 | 0.00 | 32 | 1019.1 |
| 20260509175407 | 28 | 347 | 9.7 | 19.3 | 0.00 | 0.00 | 0.00 | 32 | 1019.1 |
| 20260509174507 | 28 | 346 | 11.3 | 20.9 | 0.00 | 0.00 | 0.00 | 32 | 1020.1 |
| 20260509173607 | 28 | 344 | 14.5 | 24.1 | 0.00 | 0.00 | 0.00 | 32 | 1020.1 |
| 20260509172707 | 28 | 342 | 11.3 | 19.3 | 0.00 | 0.00 | 0.00 | 32 | 1020.1 |
| 20260509171807 | 28 | 341 | 11.3 | 17.7 | 0.00 | 0.00 | 0.00 | 32 | 1020.1 |
| 20260509170907 | 28 | 334 | 9.7 | 20.9 | 0.00 | 0.00 | 0.00 | 33 | 1020.1 |
| 20260509170008 | 28 | 345 | 9.7 | 27.4 | 0.00 | 0.00 | 0.00 | 32 | 1020.1 |
| 20260509165406 | 28 | 339 | 9.7 | 20.9 | 0.00 | 0.00 | 0.00 | 32 | 1020.1 |
| 20260509164506 | 28 | 347 | 9.7 | 19.3 | 0.00 | 0.00 | 0.00 | 32 | 1021.2 |
| 20260509163607 | 28 | 344 | 12.9 | 19.3 | 0.00 | 0.00 | 0.00 | 32 | 1021.2 |
| 20260509162706 | 29 | 346 | 9.7 | 20.9 | 0.00 | 0.00 | 0.00 | 32 | 1021.2 |
| 20260509161807 | 28 | 336 | 12.9 | 17.7 | 0.00 | 0.00 | 0.00 | 33 | 1021.2 |
| 20260509160906 | 28 | 339 | 8.0 | 19.3 | 0.00 | 0.00 | 0.00 | 33 | 1021.2 |
| 20260509160007 | 28 | 341 | 9.7 | 16.1 | 0.00 | 0.00 | 0.00 | 33 | 1021.2 |
| 20260509155428 | 28 | 334 | 9.7 | 16.1 | 0.00 | 0.00 | 0.00 | 33 | 1021.2 |
| 20260509154506 | 29 | 342 | 9.7 | 16.1 | 0.00 | 0.00 | 0.00 | 33 | 1021.2 |
| 20260509153606 | 29 | 343 | 8.0 | 17.7 | 0.00 | 0.00 | 0.00 | 34 | 1021.2 |
| 20260509152706 | 29 | 333 | 6.4 | 17.7 | 0.00 | 0.00 | 0.00 | 34 | 1021.2 |
| 20260509151807 | 30 | 337 | 8.0 | 16.1 | 0.00 | 0.00 | 0.00 | 34 | 1022.3 |
| 20260509150927 | 29 | 338 | 6.4 | 17.7 | 0.00 | 0.00 | 0.00 | 34 | 1022.3 |
| 20260509150006 | 29 | 347 | 6.4 | 22.5 | 0.00 | 0.00 | 0.00 | 34 | 1022.3 |
| 20260509144506 | 30 | 326 | 9.7 | 12.9 | 0.00 | 0.00 | 0.00 | 35 | 1023.3 |
| 20260509143606 | 30 | 329 | 9.7 | 19.3 | 0.00 | 0.00 | 0.00 | 36 | 1021.2 |
| 20260509142706 | 29 | 341 | 11.3 | 16.1 | 0.00 | 0.00 | 0.00 | 36 | 1021.2 |
| 20260509141828 | 28 | 343 | 8.0 | 12.9 | 0.00 | 0.00 | 0.00 | 37 | 1022.3 |
| 20260509140906 | 27 | 344 | 8.0 | 12.9 | 0.00 | 0.00 | 0.00 | 38 | 1022.3 |
| 20260509140007 | 27 | 344 | 3.2 | 12.9 | 0.00 | 0.00 | 0.00 | 38 | 1022.3 |
| 20260509135406 | 27 | 353 | 8.0 | 12.9 | 0.00 | 0.00 | 0.00 | 38 | 1022.3 |
| 20260509134527 | 26 | 357 | 9.7 | 14.5 | 0.00 | 0.00 | 0.00 | 39 | 1022.3 |
| 20260509133606 | 26 | 360 | 4.8 | 12.9 | 0.00 | 0.00 | 0.00 | 39 | 1022.3 |
| 20260509132706 | 26 | 349 | 8.0 | 14.5 | 0.00 | 0.00 | 0.00 | 39 | 1022.3 |
| 20260509131826 | 26 | 344 | 4.8 | 12.9 | 0.00 | 0.00 | 0.00 | 40 | 1022.3 |
| 20260509130906 | 26 | 346 | 6.4 | 14.5 | 0.00 | 0.00 | 0.00 | 40 | 1022.3 |
| 20260509130006 | 25 | 348 | 3.2 | 14.5 | 0.00 | 0.00 | 0.00 | 40 | 1022.3 |
| 20260509125406 | 25 | 2 | 8.0 | 12.9 | 0.00 | 0.00 | 0.00 | 40 | 1022.3 |
| 20260509124506 | 25 | 1 | 4.8 | 12.9 | 0.00 | 0.00 | 0.00 | 40 | 1022.3 |
| 20260509123606 | 25 | 359 | 4.8 | 9.7 | 0.00 | 0.00 | 0.00 | 41 | 1022.3 |
| 20260509122707 | 25 | 347 | 6.4 | 9.7 | 0.00 | 0.00 | 0.00 | 41 | 1022.3 |
| 20260509121806 | 25 | 344 | 4.8 | 9.7 | 0.00 | 0.00 | 0.00 | 41 | 1022.3 |
| 20260509120906 | 25 | 345 | 4.8 | 9.7 | 0.00 | 0.00 | 0.00 | 41 | 1022.3 |
| 20260509120027 | 24 | 1 | 6.4 | 9.7 | 0.00 | 0.00 | 0.00 | 41 | 1023.3 |
| 20260509115405 | 24 | 359 | 3.2 | 6.4 | 0.00 | 0.00 | 0.00 | 41 | 1023.3 |
| 20260509114527 | 23 | 334 | 3.2 | 11.3 | 0.00 | 0.00 | 0.00 | 41 | 1022.3 |
| 20260509113605 | 23 | 353 | 3.2 | 9.7 | 0.00 | 0.00 | 0.00 | 41 | 1022.3 |
| 20260509112727 | 23 | 4 | 4.8 | 9.7 | 0.00 | 0.00 | 0.00 | 41 | 1022.3 |
| 20260509111806 | 23 | 8 | 4.8 | 8.0 | 0.00 | 0.00 | 0.00 | 41 | 1021.2 |
| 20260509110926 | 23 | 10 | 1.6 | 6.4 | 0.00 | 0.00 | 0.00 | 41 | 1021.2 |
| 20260509110006 | 23 | 354 | 3.2 | 4.8 | 0.00 | 0.00 | 0.00 | 41 | 1021.2 |
| 20260509105406 | 23 | 354 | 1.6 | 4.8 | 0.00 | 0.00 | 0.00 | 41 | 1021.2 |
| 20260509104507 | 23 | 315 | 0.0 | 3.2 | 0.00 | 0.00 | 0.00 | 41 | 1021.2 |
| 20260509103605 | 23 | 315 | 1.6 | 1.6 | 0.00 | 0.00 | 0.00 | 41 | 1021.2 |
| 20260509102705 | 22 | 337 | 0.0 | 3.2 | 0.00 | 0.00 | 0.00 | 41 | 1021.2 |
| 20260509101826 | 22 | 335 | 0.0 | 4.8 | 0.00 | 0.00 | 0.00 | 42 | 1021.2 |
| 20260509100906 | 22 | 0 | 0.0 | 0.0 | 0.00 | 0.00 | 0.00 | 41 | 1021.2 |
| 20260509100006 | 22 | 337 | 0.0 | 1.6 | 0.00 | 0.00 | 0.00 | 41 | 1020.1 |
| 20260509095405 | 22 | 0 | 0.0 | 0.0 | 0.00 | 0.00 | 0.00 | 41 | 1020.1 |
| 20260509094506 | 22 | 337 | 0.0 | 3.2 | 0.00 | 0.00 | 0.00 | 41 | 1020.1 |
| 20260509093605 | 22 | 0 | 0.0 | 0.0 | 0.00 | 0.00 | 0.00 | 41 | 1020.1 |
| 20260509092705 | 22 | 340 | 0.0 | 4.8 | 0.00 | 0.00 | 0.00 | 41 | 1020.1 |
| 20260509091806 | 22 | 1 | 3.2 | 6.4 | 0.00 | 0.00 | 0.00 | 41 | 1019.1 |
| 20260509090905 | 22 | 292 | 0.0 | 4.8 | 0.00 | 0.00 | 0.00 | 41 | 1019.1 |
| 20260509090005 | 22 | 292 | 3.2 | 4.8 | 0.00 | 0.00 | 0.00 | 41 | 1021.2 |
| 20260509085406 | 22 | 292 | 1.6 | 3.2 | 0.00 | 0.00 | 0.00 | 41 | 1021.2 |
| 20260509084505 | 22 | 292 | 0.0 | 4.8 | 0.00 | 0.00 | 0.00 | 41 | 1021.2 |
| 20260509083605 | 22 | 319 | 3.2 | 6.4 | 0.00 | 0.00 | 0.00 | 40 | 1020.1 |
| 20260509082705 | 22 | 338 | 4.8 | 8.0 | 0.00 | 0.00 | 0.00 | 40 | 1020.1 |
| 20260509081806 | 22 | 331 | 4.8 | 12.9 | 0.00 | 0.00 | 0.00 | 40 | 1020.1 |
| 20260509080906 | 22 | 333 | 4.8 | 14.5 | 0.00 | 0.00 | 0.00 | 40 | 1020.1 |
| 20260509080005 | 22 | 326 | 6.4 | 9.7 | 0.00 | 0.00 | 0.00 | 40 | 1020.1 |
| 20260509075405 | 22 | 328 | 1.6 | 9.7 | 0.00 | 0.00 | 0.00 | 40 | 1020.1 |
| 20260509074505 | 22 | 345 | 6.4 | 9.7 | 0.00 | 0.00 | 0.00 | 40 | 1020.1 |
| 20260509073605 | 22 | 325 | 3.2 | 6.4 | 0.00 | 0.00 | 0.00 | 40 | 1020.1 |
| 20260509072705 | 22 | 281 | 4.8 | 9.7 | 0.00 | 0.00 | 0.00 | 40 | 1020.1 |
| 20260509071826 | 22 | 211 | 4.8 | 9.7 | 0.00 | 0.00 | 0.00 | 39 | 1020.1 |
| 20260509070906 | 23 | 308 | 3.2 | 9.7 | 0.00 | 0.00 | 0.00 | 39 | 1020.1 |
| 20260509070026 | 22 | 182 | 0.0 | 6.4 | 0.00 | 0.00 | 0.00 | 39 | 1019.1 |
| 20260509065405 | 22 | 307 | 0.0 | 6.4 | 0.00 | 0.00 | 0.00 | 39 | 1019.1 |
| 20260509064505 | 22 | 350 | 4.8 | 8.0 | 0.00 | 0.00 | 0.00 | 39 | 1019.1 |
| 20260509063626 | 22 | 357 | 4.8 | 9.7 | 0.00 | 0.00 | 0.00 | 39 | 1019.1 |
| 20260509062705 | 22 | 357 | 4.8 | 9.7 | 0.00 | 0.00 | 0.00 | 39 | 1019.1 |
| 20260509061805 | 22 | 356 | 4.8 | 9.7 | 0.00 | 0.00 | 0.00 | 39 | 1019.1 |
| 20260509060905 | 22 | 4 | 6.4 | 9.7 | 0.00 | 0.00 | 0.00 | 39 | 1019.1 |
| 20260509060005 | 22 | 356 | 3.2 | 6.4 | 0.00 | 0.00 | 0.00 | 38 | 1020.1 |
| 20260509055426 | 22 | 360 | 3.2 | 6.4 | 0.00 | 0.00 | 0.00 | 38 | 1020.1 |
| 20260509054525 | 23 | 353 | 4.8 | 9.7 | 0.00 | 0.00 | 0.00 | 38 | 1019.1 |
| 20260509053604 | 23 | 348 | 3.2 | 9.7 | 0.00 | 0.00 | 0.00 | 38 | 1019.1 |
| 20260509052704 | 23 | 347 | 3.2 | 8.0 | 0.00 | 0.00 | 0.00 | 38 | 1019.1 |
| 20260509051805 | 23 | 1 | 4.8 | 8.0 | 0.00 | 0.00 | 0.00 | 38 | 1020.1 |
| 20260509050905 | 23 | 4 | 4.8 | 8.0 | 0.00 | 0.00 | 0.00 | 38 | 1020.1 |
| 20260509050004 | 23 | 356 | 4.8 | 9.7 | 0.00 | 0.00 | 0.00 | 38 | 1019.1 |
| 20260509045404 | 23 | 359 | 4.8 | 8.0 | 0.00 | 0.00 | 0.00 | 38 | 1019.1 |
| 20260509044526 | 23 | 360 | 3.2 | 9.7 | 0.00 | 0.00 | 0.00 | 38 | 1020.1 |
| 20260509043625 | 23 | 3 | 4.8 | 9.7 | 0.00 | 0.00 | 0.00 | 38 | 1020.1 |
| 20260509042704 | 23 | 5 | 4.8 | 9.7 | 0.00 | 0.00 | 0.00 | 37 | 1020.1 |
| 20260509041825 | 23 | 2 | 4.8 | 9.7 | 0.00 | 0.00 | 0.00 | 37 | 1019.1 |
| 20260509040904 | 23 | 354 | 3.2 | 6.4 | 0.00 | 0.00 | 0.00 | 37 | 1019.1 |
| 20260509040025 | 23 | 13 | 4.8 | 9.7 | 0.00 | 0.00 | 0.00 | 37 | 1020.1 |
| 20260509035426 | 23 | 360 | 4.8 | 9.7 | 0.00 | 0.00 | 0.00 | 37 | 1020.1 |
| 20260509034504 | 23 | 346 | 3.2 | 8.0 | 0.00 | 0.00 | 0.00 | 37 | 1020.1 |
| 20260509033604 | 23 | 348 | 4.8 | 9.7 | 0.00 | 0.00 | 0.00 | 37 | 1020.1 |
| 20260509032704 | 23 | 338 | 4.8 | 8.0 | 0.00 | 0.00 | 0.00 | 37 | 1020.1 |
| 20260509031804 | 23 | 345 | 4.8 | 8.0 | 0.00 | 0.00 | 0.00 | 37 | 1020.1 |
| 20260509030905 | 24 | 348 | 4.8 | 8.0 | 0.00 | 0.00 | 0.00 | 37 | 1020.1 |
| 20260509030004 | 24 | 355 | 4.8 | 6.4 | 0.00 | 0.00 | 0.00 | 37 | 1020.1 |
| 20260509025404 | 24 | 352 | 4.8 | 9.7 | 0.00 | 0.00 | 0.00 | 37 | 1020.1 |
| 20260509024503 | 24 | 348 | 3.2 | 6.4 | 0.00 | 0.00 | 0.00 | 36 | 1020.1 |
| 20260509023604 | 24 | 337 | 3.2 | 6.4 | 0.00 | 0.00 | 0.00 | 36 | 1020.1 |
| 20260509022725 | 24 | 337 | 3.2 | 4.8 | 0.00 | 0.00 | 0.00 | 36 | 1020.1 |
| 20260509021804 | 24 | 335 | 3.2 | 8.0 | 0.00 | 0.00 | 0.00 | 36 | 1020.1 |
| 20260509020925 | 24 | 315 | 3.2 | 4.8 | 0.00 | 0.00 | 0.00 | 36 | 1020.1 |
| 20260509020004 | 24 | 315 | 0.0 | 4.8 | 0.00 | 0.00 | 0.00 | 36 | 1020.1 |
| 20260509015404 | 24 | 315 | 0.0 | 4.8 | 0.00 | 0.00 | 0.00 | 36 | 1020.1 |
| 20260509014504 | 25 | 315 | 0.0 | 4.8 | 0.00 | 0.00 | 0.00 | 36 | 1020.1 |
| 20260509013604 | 25 | 323 | 0.0 | 4.8 | 0.00 | 0.00 | 0.00 | 36 | 1019.1 |
| 20260509012704 | 25 | 326 | 1.6 | 6.4 | 0.00 | 0.00 | 0.00 | 36 | 1019.1 |
| 20260509011804 | 25 | 332 | 4.8 | 6.4 | 0.00 | 0.00 | 0.00 | 36 | 1019.1 |
| 20260509010904 | 25 | 347 | 3.2 | 6.4 | 0.00 | 0.00 | 0.00 | 36 | 1019.1 |
| 20260509010024 | 25 | 315 | 0.0 | 3.2 | 0.00 | 0.00 | 0.00 | 35 | 1019.1 |
| 20260509005405 | 25 | 315 | 1.6 | 3.2 | 0.00 | 0.00 | 0.00 | 35 | 1019.1 |
| 20260509004504 | 25 | 0 | 0.0 | 0.0 | 0.00 | 0.00 | 0.00 | 35 | 1019.1 |
| 20260509003604 | 25 | 0 | 0.0 | 0.0 | 0.00 | 0.00 | 0.00 | 35 | 1019.1 |
| 20260509002704 | 25 | 315 | 0.0 | 3.2 | 0.00 | 0.00 | 0.00 | 35 | 1019.1 |
| 20260509001804 | 25 | 315 | 1.6 | 4.8 | 0.00 | 0.00 | 0.00 | 35 | 1019.1 |
| 20260509000903 | 25 | 0 | 0.0 | 0.0 | 0.00 | 0.00 | 0.00 | 35 | 1019.1 |
| 20260509000004 | 25 | 0 | 0.0 | 0.0 | 0.00 | 0.00 | 0.00 | 35 | 1018.0 |
| 20260508235403 | 25 | 0 | 0.0 | 0.0 | 0.00 | 0.00 | 0.00 | 35 | 1018.0 |
| 20260508234508 | 25 | 338 | 0.0 | 4.8 | 0.00 | 0.00 | 0.00 | 34 | 1018.0 |
| 20260508233629 | 26 | 337 | 0.0 | 4.8 | 0.00 | 0.00 | 0.00 | 34 | 1018.0 |
| 20260508232708 | 26 | 348 | 0.0 | 4.8 | 0.00 | 0.00 | 0.00 | 34 | 1018.0 |
| 20260508231829 | 26 | 8 | 0.0 | 4.8 | 0.00 | 0.00 | 0.00 | 34 | 1018.0 |
| 20260508230908 | 26 | 325 | 1.6 | 8.0 | 0.00 | 0.00 | 0.00 | 34 | 1018.0 |
| 20260508230030 | 26 | 292 | 1.6 | 4.8 | 0.00 | 0.00 | 0.00 | 34 | 1019.1 |
| 20260508225409 | 26 | 292 | 1.6 | 4.8 | 0.00 | 0.00 | 0.00 | 34 | 1019.1 |
| 20260508224508 | 26 | 292 | 3.2 | 4.8 | 0.00 | 0.00 | 0.00 | 34 | 1019.1 |
| 20260508223608 | 26 | 310 | 3.2 | 6.4 | 0.00 | 0.00 | 0.00 | 34 | 1018.0 |
| 20260508222729 | 26 | 339 | 4.8 | 6.4 | 0.00 | 0.00 | 0.00 | 33 | 1018.0 |
| 20260508221808 | 26 | 339 | 3.2 | 6.4 | 0.00 | 0.00 | 0.00 | 34 | 1018.0 |
| 20260508220908 | 26 | 310 | 3.2 | 6.4 | 0.00 | 0.00 | 0.00 | 34 | 1018.0 |
| 20260508220028 | 26 | 292 | 0.0 | 4.8 | 0.00 | 0.00 | 0.00 | 34 | 1018.0 |
| 20260508215407 | 26 | 0 | 0.0 | 0.0 | 0.00 | 0.00 | 0.00 | 34 | 1018.0 |
| 20260508214509 | 26 | 0 | 0.0 | 0.0 | 0.00 | 0.00 | 0.00 | 33 | 1018.0 |
| 20260508213608 | 26 | 270 | 0.0 | 3.2 | 0.00 | 0.00 | 0.00 | 33 | 1018.0 |
| 20260508212708 | 26 | 280 | 3.2 | 3.2 | 0.00 | 0.00 | 0.00 | 33 | 1018.0 |
| 20260508211808 | 26 | 292 | 1.6 | 4.8 | 0.00 | 0.00 | 0.00 | 33 | 1018.0 |
| 20260508210907 | 27 | 315 | 0.0 | 3.2 | 0.00 | 0.00 | 0.00 | 32 | 1018.0 |
| 20260508210007 | 27 | 319 | 0.0 | 4.8 | 0.00 | 0.00 | 0.00 | 32 | 1018.0 |
| 20260508205429 | 27 | 318 | 1.6 | 4.8 | 0.00 | 0.00 | 0.00 | 32 | 1018.0 |
| 20260508204529 | 27 | 326 | 3.2 | 6.4 | 0.00 | 0.00 | 0.00 | 32 | 1018.0 |
| 20260508203607 | 27 | 306 | 3.2 | 8.0 | 0.00 | 0.00 | 0.00 | 32 | 1017.0 |
| 20260508202708 | 27 | 317 | 6.4 | 9.7 | 0.00 | 0.00 | 0.00 | 32 | 1017.0 |
| 20260508201807 | 28 | 327 | 6.4 | 9.7 | 0.00 | 0.00 | 0.00 | 31 | 1017.0 |